Date String (YYYY-MM-DD hh:mm:ss) UTC,Instrument flags,Ambient pressure (hPa),Sample flow (lpm),Bypass flow (lpm),Sample temperature (°C),Ambient temperature (°C),ASC tube jacket temperature (°C),LED temperature (°C),Box temperature (°C),Sample RH (%),Span deviation,Mass concentration (μg/m³),Mass concentration (μg/m³),Mass concentration (μg/m³)
DateTimeUTC,F1_M11,P_M11,Q1_M11,Q2_M11,T1_M11,T2_M11,T3_M11,T4_M11,T5_M11,U1_M11,ZSPAN_M11,X0_M11,X2_M11,X1_M11
2023-05-11 11:00:00,,0825.2,5.00,0.00,24.8,23.1,00.0,33.2,26.6,26.1,0000.0,0001.63,0000.77,0000.51
2023-05-11 11:01:00,,0825.3,5.00,0.00,24.8,23.2,00.0,33.2,26.6,26.0,0000.0,0001.58,0000.75,0000.51
2023-05-11 11:02:00,,0825.2,5.00,0.00,24.8,23.2,00.0,33.2,26.6,25.9,0000.0,0001.45,0000.76,0000.51
2023-05-11 11:03:00,,0825.2,5.01,0.00,24.8,23.3,00.0,33.2,26.6,25.8,0000.0,0001.46,0000.79,0000.52
2023-05-11 11:04:00,,0825.2,5.00,0.00,24.8,23.3,00.0,33.2,26.6,25.9,0000.0,0001.53,0000.83,0000.53
2023-05-11 11:05:00,,0825.2,5.00,0.00,24.8,23.3,00.0,33.2,26.6,25.7,0000.0,0001.63,0000.86,0000.53
2023-05-11 11:06:00,,0825.3,5.00,0.00,24.9,23.3,00.0,33.2,26.6,25.7,0000.0,0001.61,0000.85,0000.53
2023-05-11 11:07:00,,0825.3,5.01,0.00,24.9,23.3,00.0,33.2,26.6,25.7,0000.0,0001.59,0000.83,0000.52
2023-05-11 11:08:00,,0825.3,5.01,0.00,24.9,23.3,00.0,33.2,26.6,25.8,0000.0,0001.67,0000.85,0000.52
2023-05-11 11:09:00,,0825.3,4.99,0.00,24.9,23.3,00.0,33.2,26.6,26.0,0000.0,0001.64,0000.86,0000.53
2023-05-11 11:10:00,,0825.3,4.99,0.00,24.9,23.3,00.0,33.2,26.7,25.9,0000.0,0001.71,0000.89,0000.54
2023-05-11 11:11:00,,0825.4,4.99,0.00,24.9,23.4,00.0,33.2,26.7,25.8,0000.0,0001.73,0000.89,0000.53
2023-05-11 11:12:00,,0825.4,5.00,0.00,24.9,23.4,00.0,33.2,26.7,25.8,0000.0,0001.74,0000.89,0000.52
2023-05-11 11:13:00,,0825.4,5.01,0.00,24.9,23.4,00.0,33.2,26.7,25.7,0000.0,0001.67,0000.86,0000.52
2023-05-11 11:14:00,,0825.4,5.01,0.00,24.9,23.5,00.0,33.2,26.7,25.8,0000.0,0001.65,0000.85,0000.51
2023-05-11 11:15:00,,0825.4,5.00,0.00,24.9,23.5,00.0,33.3,26.7,25.8,0000.0,0001.70,0000.85,0000.50
2023-05-11 11:16:00,,0825.4,4.99,0.00,25.0,23.5,00.0,33.3,26.7,25.8,0000.0,0001.64,0000.84,0000.50
2023-05-11 11:17:00,,0825.4,4.99,0.00,25.0,23.5,00.0,33.3,26.7,26.0,0000.0,0001.71,0000.87,0000.51
2023-05-11 11:18:00,,0825.4,4.99,0.00,25.0,23.6,00.0,33.3,26.8,25.8,0000.0,0001.74,0000.88,0000.51
2023-05-11 11:19:00,,0825.4,5.02,0.00,25.0,23.6,00.0,33.3,26.8,25.8,0000.0,0001.81,0000.88,0000.51
2023-05-11 11:20:00,,0825.4,5.00,0.00,25.0,23.6,00.0,33.3,26.8,25.6,0000.0,0001.79,0000.88,0000.50
2023-05-11 11:21:00,,0825.4,5.00,0.00,25.0,23.6,00.0,33.3,26.8,25.4,0000.0,0001.76,0000.86,0000.49
2023-05-11 11:22:00,,0825.4,5.00,0.00,25.0,23.6,00.0,33.3,26.8,25.4,0000.0,0001.67,0000.83,0000.49
2023-05-11 11:23:00,,0825.3,4.99,0.00,25.0,23.6,00.0,33.3,26.8,25.4,0000.0,0001.71,0000.86,0000.50
2023-05-11 11:24:00,,0825.4,5.00,0.00,25.0,23.6,00.0,33.3,26.8,25.3,0000.0,0001.82,0000.91,0000.50
2023-05-11 11:25:00,,0825.3,5.00,0.00,25.0,23.6,00.0,33.3,26.8,25.3,0000.0,0001.75,0000.88,0000.50
2023-05-11 11:26:00,,0825.3,5.00,0.00,25.1,23.5,00.0,33.4,26.8,25.3,0000.0,0001.63,0000.84,0000.50
2023-05-11 11:27:00,,0825.3,5.00,0.00,25.1,23.5,00.0,33.4,26.8,25.2,0000.0,0001.53,0000.81,0000.49
2023-05-11 11:28:00,,0825.3,5.00,0.00,25.1,23.5,00.0,33.4,26.8,25.2,0000.0,0001.44,0000.77,0000.48
2023-05-11 11:29:00,,0825.3,5.00,0.00,25.1,23.5,00.0,33.4,26.8,25.3,0000.0,0001.38,0000.76,0000.48
2023-05-11 11:30:00,,0825.3,5.01,0.00,25.1,23.5,00.0,33.4,26.8,25.5,0000.0,0001.32,0000.77,0000.48
2023-05-11 11:31:00,,0825.3,5.00,0.00,25.1,23.5,00.0,33.4,26.8,25.9,0000.0,0001.42,0000.81,0000.49
2023-05-11 11:32:00,,0825.3,5.00,0.00,25.1,23.5,00.0,33.4,26.8,25.5,0000.0,0001.43,0000.83,0000.50
2023-05-11 11:33:00,,0825.2,5.00,0.00,25.1,23.5,00.0,33.4,26.8,25.4,0000.0,0001.42,0000.83,0000.50
2023-05-11 11:34:00,,0825.2,5.00,0.00,25.1,23.4,00.0,33.4,26.8,25.5,0000.0,0001.43,0000.84,0000.49
2023-05-11 11:35:00,,0825.2,4.99,0.00,25.1,23.4,00.0,33.4,26.8,25.7,0000.0,0001.40,0000.82,0000.49
2023-05-11 11:36:00,,0825.2,4.99,0.00,25.1,23.4,00.0,33.4,26.8,25.9,0000.0,0001.45,0000.82,0000.50
2023-05-11 11:37:00,,0825.2,5.00,0.00,25.1,23.3,00.0,33.4,26.8,25.9,0000.0,0001.48,0000.84,0000.51
2023-05-11 11:38:00,,0825.3,5.00,0.00,25.0,23.3,00.0,33.4,26.8,25.7,0000.0,0001.52,0000.86,0000.51
2023-05-11 11:39:00,,0825.3,5.01,0.00,25.0,23.3,00.0,33.4,26.8,25.8,0000.0,0001.56,0000.88,0000.52
2023-05-11 11:40:00,,0825.2,5.00,0.00,25.0,23.4,00.0,33.4,26.8,25.9,0000.0,0001.57,0000.87,0000.51
2023-05-11 11:41:00,,0825.3,5.00,0.00,25.0,23.4,00.0,33.4,26.8,26.0,0000.0,0001.55,0000.88,0000.52
2023-05-11 11:42:00,,0825.3,5.01,0.00,25.1,23.4,00.0,33.4,26.8,25.9,0000.0,0001.45,0000.84,0000.52
2023-05-11 11:43:00,,0825.3,5.00,0.00,25.1,23.5,00.0,33.4,26.8,26.0,0000.0,0001.37,0000.79,0000.51
2023-05-11 11:44:00,,0825.2,4.99,0.00,25.1,23.4,00.0,33.4,26.8,26.1,0000.0,0001.36,0000.78,0000.50
2023-05-11 11:45:00,,0825.3,4.99,0.00,25.1,23.4,00.0,33.4,26.8,26.4,0000.0,0001.44,0000.79,0000.50
2023-05-11 11:46:00,,0825.2,4.99,0.00,25.1,23.4,00.0,33.4,26.8,26.7,0000.0,0001.48,0000.78,0000.51
2023-05-11 11:47:00,,0825.2,5.01,0.00,25.1,23.4,00.0,33.4,26.8,27.4,0000.0,0002.08,0000.80,0000.52
2023-05-11 11:48:00,,0825.2,5.01,0.00,25.1,23.5,00.0,33.4,26.8,27.4,0000.0,0002.15,0000.83,0000.52
2023-05-11 11:49:00,,0825.2,5.00,0.00,25.1,23.5,00.0,33.4,26.9,27.3,0000.0,0002.33,0000.86,0000.53
2023-05-11 11:50:00,,0825.2,4.99,0.00,25.1,23.5,00.0,33.4,26.9,27.3,0000.0,0002.39,0000.86,0000.53
2023-05-11 11:51:00,,0825.2,4.99,0.00,25.1,23.5,00.0,33.4,26.9,27.5,0000.0,0002.72,0000.89,0000.54
2023-05-11 11:52:00,,0825.2,5.00,0.00,25.1,23.5,00.0,33.4,26.9,27.5,0000.0,0002.76,0000.89,0000.54
2023-05-11 11:53:00,,0825.2,5.00,0.00,25.1,23.5,00.0,33.4,26.9,27.3,0000.0,0002.65,0000.86,0000.54
2023-05-11 11:54:00,,0825.2,5.00,0.00,25.1,23.5,00.0,33.4,26.9,27.4,0000.0,0002.64,0000.86,0000.55
2023-05-11 11:55:00,,0825.1,5.00,0.00,25.1,23.5,00.0,33.4,26.9,27.6,0000.0,0002.64,0000.88,0000.57
2023-05-11 11:56:00,,0825.1,5.00,0.00,25.1,23.5,00.0,33.4,26.9,27.6,0000.0,0002.58,0000.88,0000.58
2023-05-11 11:57:00,,0825.1,5.00,0.00,25.1,23.5,00.0,33.5,26.9,27.5,0000.0,0002.65,0000.91,0000.59
2023-05-11 11:58:00,,0825.0,5.00,0.00,25.1,23.5,00.0,33.5,26.9,27.5,0000.0,0002.16,0000.96,0000.60
2023-05-11 11:59:00,,0825.0,5.00,0.00,25.1,23.5,00.0,33.5,26.9,27.4,0000.0,0002.14,0000.96,0000.60
